EHI
0 3 5 3 0 0 0 0 1 4 7 9 9 8 6 3 2 1 0 0 0 0 0 0 0 0 0 0 0 0 0 0 0 0 0 0 0 0 0 1 2 1 0
3 4 5 3 1 0 0 1 2 4 5 6 6 6 4 2 1 0 0 0 0 0 0 0 0 0 0 0 0 0 0 0 0 0 0 0 0 0 0 1 1 1 0
9 6 4 4 3 2 1 1 2 3 3 2 3 3 2 1 0 0 0 0 0 0 0 0 0 0 0 0 0 0 0 0 0 0 0 0 0 0 0 0 0 0 0
13 8 5 7 7 5 3 2 2 1 1 0 1 1 1 0 0 0 0 0 0 0 0 0 0 0 0 0 0 0 0 0 0 0 0 0 0 0 0 0 0 0 0
14 10 10 13 12 8 5 3 1 0 0 0 0 0 0 0 0 0 0 0 0 0 0 0 0 0 0 0 0 0 0 0 0 0 0 0 0 0 0 0 0 0 0
14 12 14 18 16 11 8 4 1 0 0 0 0 0 0 0 0 0 0 0 0 0 0 0 0 0 0 0 0 0 0 0 0 0 0 0 0 0 0 0 0 0 0
16 13 15 19 18 13 10 6 2 0 0 0 0 0 0 0 0 0 0 0 0 0 0 0 0 0 0 0 0 0 0 0 0 0 0 0 0 0 0 0 0 0 0
18 15 13 15 16 13 11 8 4 1 0 0 0 0 0 0 0 0 0 0 0 0 0 0 0 0 0 0 0 1 1 1 0 0 0 0 0 0 0 0 0 0 0
17 15 12 11 11 10 10 8 5 2 1 0 0 0 0 0 0 0 0 0 0 0 0 0 0 0 0 0 0 1 2 2 1 0 0 0 0 0 0 0 0 0 0
15 14 12 10 8 6 6 7 6 3 2 0 0 0 0 0 0 0 0 0 0 0 0 0 0 0 0 0 0 1 2 2 1 0 0 0 0 0 0 0 0 0 0
15 14 13 11 8 5 4 5 5 3 2 1 0 0 0 0 0 0 0 0 0 0 0 0 0 0 0 0 0 1 1 1 0 0 0 0 0 0 0 0 0 0 0
19 16 14 13 11 7 4 4 3 2 1 1 1 1 1 1 0 0 0 0 0 0 0 0 0 0 0 0 0 0 0 0 0 0 0 0 1 1 0 0 0 0 0
23 19 13 12 12 8 4 3 2 1 1 1 1 1 1 1 0 0 0 0 0 0 0 0 0 0 0 0 0 0 0 0 0 0 1 1 1 1 0 0 0 0 0
26 20 13 10 9 6 4 3 2 1 0 0 0 0 0 0 0 0 0 0 0 0 0 0 0 0 0 0 0 0 0 0 0 0 1 2 2 1 0 0 0 0 0
34 27 18 13 10 6 5 4 2 0 0 0 0 0 0 0 0 0 0 0 0 0 0 0 0 0 0 0 0 0 0 0 0 0 1 2 2 1 0 0 0 0 0
47 41 32 25 18 12 8 6 3 1 1 0 0 0 0 0 0 0 0 0 0 0 0 0 0 0 0 0 0 0 0 0 0 0 0 1 1 0 0 0 0 0 0
61 55 48 41 32 21 14 10 6 4 3 2 1 0 0 1 2 1 1 1 0 0 0 0 0 0 0 0 0 0 0 0 0 0 0 0 0 0 0 0 0 0 0
70 65 60 54 45 32 24 18 13 9 6 4 3 1 1 3 4 4 3 2 1 0 0 0 0 0 0 0 0 0 0 0 0 0 0 0 0 0 0 1 1 1 1
72 69 66 61 53 42 34 28 21 14 9 7 4 3 4 5 6 5 4 3 2 1 0 0 0 0 0 0 0 0 0 0 0 0 0 0 0 0 0 1 2 2 2
71 68 66 63 57 47 38 32 26 18 13 10 8 7 8 8 8 7 5 3 2 1 0 0 0 0 0 0 0 0 0 0 0 0 0 0 0 0 0 0 1 2 3
71 68 65 63 58 48 37 30 26 21 15 11 10 9 10 11 11 8 5 3 2 1 0 0 0 0 0 0 0 0 0 0 0 0 0 0 0 0 0 0 0 1 2
73 70 65 61 57 46 34 25 22 18 12 9 9 9 9 11 12 9 5 3 2 1 0 0 0 0 0 0 0 0 0 0 0 0 0 0 0 0 0 0 0 0 1
74 70 62 57 52 45 35 25 18 15 11 8 7 8 8 9 10 9 6 4 3 1 0 0 0 0 0 0 0 0 0 0 0 0 0 0 0 0 0 0 0 0 0
70 67 60 53 47 43 38 28 19 14 11 6 5 6 7 8 9 9 7 5 3 1 0 0 0 0 0 0 0 0 0 0 0 0 0 0 0 0 0 0 0 0 1
64 62 57 50 43 38 36 28 17 11 7 3 2 2 4 6 9 11 9 5 3 2 1 0 0 0 0 0 0 0 0 0 0 0 0 0 0 0 0 0 0 0 1
61 59 54 48 40 34 30 24 15 7 3 1 0 0 2 5 9 12 10 5 2 2 1 0 0 0 0 0 0 0 0 0 0 0 0 0 0 0 0 0 0 0 1
Wind_Speed
6 9 16 17 17 17 16 16 16 17 17 17 17 17 17 17 17 17 17 16 16 16 16 17 17 17 18 18 18 18 18 18 18 18 17 17 18 17 17 17 16 12 17
11 11 17 17 17 17 16 16 16 16 16 16 16 16 16 16 16 16 16 16 16 16 16 16 17 17 17 17 18 18 17 17 17 17 17 16 17 17 16 16 15 11 16
13 11 15 17 17 17 16 16 16 15 15 15 15 15 15 15 15 15 16 15 16 16 16 15 16 16 16 16 16 16 16 16 17 17 16 8 11 16 16 16 16 16 16
13 10 12 17 17 17 16 16 15 15 15 14 14 14 14 14 15 15 15 15 15 15 15 15 15 15 15 14 14 14 14 15 16 15 8 7 8 15 15 16 16 16 15
12 9 13 18 17 17 16 15 15 15 14 14 14 14 14 14 14 15 15 14 14 14 14 14 13 13 13 13 12 11 12 13 15 12 7 6 6 13 15 15 15 15 15
10 9 13 18 17 17 16 15 15 14 14 14 14 13 13 14 14 14 14 14 14 14 13 13 12 12 11 11 10 10 11 15 13 8 6 6 5 12 14 15 14 14 14
10 8 11 18 17 17 16 16 15 14 14 14 13 13 13 13 13 14 14 13 13 13 12 11 11 10 10 9 9 9 11 15 9 7 6 5 7 12 14 14 14 14 14
12 9 10 17 17 17 16 16 15 14 14 14 13 13 13 13 13 13 13 13 13 12 11 10 10 9 8 8 8 9 13 15 11 9 6 5 10 12 14 14 13 13 13
12 9 7 9 12 16 16 15 15 14 14 13 13 13 13 13 13 13 12 12 12 11 10 9 8 8 7 6 7 8 11 15 8 6 8 5 11 13 13 13 13 13 12
10 8 7 7 7 7 9 15 15 14 14 13 13 13 13 13 13 12 11 11 11 10 9 8 7 6 5 5 6 8 12 13 6 6 4 6 12 13 13 13 12 12 12
10 7 7 7 6 6 6 11 12 13 13 12 11 14 11 5 6 7 9 11 11 10 9 7 6 5 3 3 4 8 10 4 5 4 3 9 12 12 12 12 12 11 11
11 9 8 8 8 7 7 6 4 5 6 5 4 6 4 4 4 6 8 10 10 9 8 6 5 3 2 1 2 6 3 5 4 4 5 12 12 12 12 11 11 11 11
14 12 10 10 9 7 5 5 3 3 3 4 5 5 4 3 3 3 2 4 4 5 2 3 2 1 1 1 1 3 4 4 3 3 6 12 11 12 12 11 11 10 10
14 13 12 11 10 8 7 5 4 4 4 4 5 6 4 3 3 3 2 2 2 1 2 1 1 1 1 1 2 4 5 4 4 3 5 12 10 11 12 11 11 10 10
12 12 12 11 11 9 7 6 6 5 5 5 4 5 6 5 5 4 3 2 3 2 2 2 2 2 2 2 2 5 5 6 6 5 4 12 12 10 11 11 11 11 10
13 12 11 11 10 9 7 6 6 5 5 5 5 6 7 5 5 5 4 3 3 3 3 3 3 2 2 2 4 5 6 6 6 5 4 7 12 11 10 11 11 11 10
13 12 11 11 10 10 9 7 6 6 6 5 5 6 7 6 6 5 4 4 3 3 3 2 2 2 2 3 3 4 5 6 6 5 5 3 5 9 11 11 11 11 11
12 12 11 11 10 9 8 7 6 5 6 5 5 5 6 7 7 5 4 4 3 3 3 3 2 2 2 2 2 3 4 4 6 6 5 4 4 4 8 12 11 10 11
12 12 10 9 10 8 7 5 5 5 5 5 5 5 5 6 7 5 4 4 4 3 3 3 2 2 2 2 2 2 3 4 5 6 6 6 5 5 4 8 12 11 12
10 11 10 9 8 7 5 4 3 3 4 4 5 5 6 5 6 5 4 4 4 3 3 2 3 2 2 2 2 2 1 2 3 4 6 6 6 7 6 6 6 8 13
9 9 9 9 8 6 4 4 4 4 3 4 4 6 7 7 6 5 4 4 4 4 4 4 3 3 2 2 2 2 2 1 2 4 4 5 6 7 6 6 5 4 5
10 10 9 9 9 7 5 4 3 3 3 4 4 5 7 7 7 6 5 4 4 4 4 4 4 3 1 2 3 2 1 3 3 3 3 5 6 5 7 8 6 7 5
10 10 9 8 8 7 6 4 3 2 2 2 3 4 5 7 7 6 6 5 5 5 5 5 5 5 3 1 2 4 3 3 2 2 3 3 4 4 5 6 8 8 8
9 8 7 8 7 7 7 6 6 5 4 4 4 4 5 6 7 6 6 6 5 5 5 5 5 4 4 2 1 2 3 4 3 1 2 2 3 5 5 6 7 8 7
8 8 7 8 7 7 7 7 6 5 4 3 3 4 5 5 6 7 7 6 6 5 5 5 4 4 4 4 3 2 1 1 2 3 2 2 2 3 4 5 5 6 7
6 6 7 8 7 7 7 6 6 6 5 4 4 5 4 4 4 6 6 6 6 5 6 5 5 5 4 4 3 3 3 3 3 3 3 3 3 3 3 3 4 5 5
Wind_Direction
142 143 136 131 125 119 114 110 106 103 100 98 97 98 100 102 104 105 106 106 106 105 104 103 103 103 104 105 105 106 106 105 104 104 105 106 107 106 106 105 104 103 107
143 144 137 133 129 123 119 115 111 108 105 103 102 102 103 105 106 107 108 107 107 106 105 105 104 105 106 106 106 107 108 106 104 102 102 104 106 106 106 107 106 108 109
136 138 137 135 131 127 123 119 116 113 111 109 108 106 106 107 109 110 110 109 109 108 108 107 107 107 107 108 109 110 110 108 105 102 99 93 101 105 107 108 108 108 109
134 134 137 136 133 130 127 124 122 119 117 115 113 111 111 111 112 113 112 111 111 111 110 110 110 110 109 109 110 112 113 112 109 104 95 93 101 107 107 108 109 109 109
131 133 141 137 135 132 131 128 126 125 123 121 119 117 116 115 115 115 115 114 114 113 112 112 112 112 111 108 107 109 110 112 110 102 93 87 96 111 111 111 111 111 110
129 133 141 139 137 135 134 133 132 131 129 126 124 122 121 119 117 119 119 117 117 116 116 116 115 114 111 107 105 104 109 115 109 103 96 95 101 114 114 113 112 112 112
131 134 140 140 140 140 139 138 136 135 133 131 128 127 124 122 121 122 122 121 120 120 119 119 118 116 114 107 101 99 114 120 113 107 100 98 107 114 115 115 113 112 111
135 134 140 144 144 144 143 142 142 141 138 136 134 132 129 127 127 127 126 125 124 124 123 123 122 119 113 102 92 95 117 125 120 116 107 105 117 117 117 118 117 117 116
136 138 141 147 147 147 146 145 145 145 143 141 139 137 135 133 133 132 131 130 131 130 129 129 128 123 114 101 89 97 122 127 123 125 123 116 123 123 123 123 122 121 121
139 145 144 142 141 145 148 149 149 149 147 147 146 144 143 142 140 139 136 137 138 139 139 138 136 130 119 104 96 104 122 125 122 117 119 130 130 130 129 128 127 127 125
148 154 151 145 144 143 149 156 154 153 153 152 151 151 145 135 136 140 147 146 145 147 148 149 148 143 125 99 100 113 116 118 121 122 129 136 137 136 135 135 134 134 133
161 167 162 157 155 157 161 147 148 151 149 147 150 145 136 139 154 153 161 155 154 154 156 161 163 154 118 73 86 104 113 128 126 135 146 146 144 142 141 140 139 138 138
168 170 167 166 164 166 153 154 154 148 151 156 159 153 147 148 155 147 152 156 156 158 153 163 166 165 155 148 123 124 133 135 142 149 157 154 152 150 149 148 146 145 145
171 173 170 171 171 171 159 164 164 164 171 172 173 165 156 155 155 158 160 164 165 160 170 178 202 213 222 216 176 147 146 150 148 144 164 160 159 157 157 157 155 153 153
173 173 174 173 173 168 162 171 172 175 181 180 176 175 168 164 165 166 169 176 181 177 185 190 199 219 232 219 164 142 146 150 152 157 164 167 167 167 166 167 165 164 163
171 174 174 173 172 165 168 178 175 176 180 180 180 181 175 169 167 167 172 178 183 185 188 185 186 185 186 152 143 142 144 149 154 160 164 174 175 176 177 176 174 175 175
168 168 169 168 167 167 172 179 177 175 176 182 186 182 173 167 167 169 172 177 185 185 180 165 160 142 148 140 139 143 145 153 160 167 170 172 180 187 187 186 184 184 186
160 163 169 169 168 170 168 172 172 172 172 178 183 178 174 170 168 166 168 177 174 163 155 152 146 129 123 127 139 155 151 156 168 174 176 180 182 191 197 195 193 192 194
161 161 167 164 168 171 167 165 163 162 170 174 176 174 175 173 169 164 171 173 159 149 152 162 137 138 142 145 156 158 164 165 172 180 184 190 193 194 195 203 200 200 204
162 162 165 164 167 166 156 142 140 148 166 172 176 177 175 176 169 161 168 173 157 146 149 146 140 143 151 158 148 135 179 186 185 188 194 195 198 201 199 203 202 210 214
160 163 166 165 167 163 159 157 156 167 170 175 183 181 178 177 169 165 172 169 163 162 169 161 148 147 143 121 89 42 349 303 220 205 203 198 202 201 197 203 201 204 218
167 173 172 172 172 172 171 163 159 155 170 177 183 183 181 177 174 177 171 174 171 166 169 164 148 144 154 144 132 111 9 334 309 235 209 203 204 198 200 205 203 205 211
172 175 178 177 173 171 162 142 128 111 113 154 183 190 192 183 182 181 179 175 176 171 176 179 162 154 164 186 157 147 156 217 272 300 251 219 202 199 205 203 206 210 211
179 172 169 170 170 168 162 161 163 170 182 192 187 185 189 187 184 185 183 181 181 179 181 187 175 164 155 173 196 191 177 166 164 259 306 266 225 212 209 210 210 211 210
167 169 166 167 170 169 170 172 173 182 188 175 171 177 191 195 192 188 184 183 184 182 186 189 177 174 167 170 178 182 180 172 156 155 239 281 280 244 217 208 204 207 207
148 159 165 167 173 174 175 177 177 181 183 179 185 189 196 199 200 197 187 184 185 183 186 191 188 183 183 178 178 174 172 175 184 171 198 234 251 264 239 215 210 210 207